Location: Cormont
(50.5693°N, 1.7416°E)
Time: 00:54:38
(UTC+00:00)

Cosmos 1470 - Pass Details

Date: 21 October 2019
Orbit: 521 x 544 km, 82.5° (Epoch: 11 November)

Event Time Altitude Azimuth Distance (km) Brightness Sun altitude
Rises 17:19:24 0° 203° (SSW) 2,696 6.8 -5.4°
Reaches altitude 10° 17:21:36 10° 209° (SSW) 1,807 6.0 -5.8°
Maximum altitude 17:25:28 48° 285° (WNW) 714 3.9 -6.4°
Drops below altitude 10° 17:29:20 10° 0° (N) 1,813 5.4 -7.0°
Sets 17:31:34 0° 6° (N) 2,707 6.2 -7.3°
